www.pogodaiklimat.ru

Погода и климат >> Архив погоды >> Россия >> Якутия >> Теплый Ключ


ПОГОДА в Теплом Ключе

  • Прогноз погоды в Теплом Ключе
  • Монитор погоды в Теплом Ключе
  • Климат города

АРХИВ ПОГОДЫ в Теплом Ключе

Время (UTC), дата Ветер
(напр.,м/с)
 
Видим.   Явления Облачность Т
(С)
Тd
(С)
f
(%)
Тe
(С)
Тes
(С)
Комфортность P
(гПа)
Po
(гПа)
Тmin
(С)
Tmax
(С)
R
(мм)
R24
(мм)
S
(см)
12 12.12 В 1 10 км слабый снег 10/0 2000 м
[As op]
-36.2 -39.0 75 -41 -41 опасность
обморожения
1031.4 989.5
15 12.12 СВ 1 10 км {снег} 8/0
[As trans]
-38.0 -40.9 74 -43 -43 опасность
обморожения
1031.2 989.0
18 12.12 СВ 1 10 км слабый снег 10/0 2000 м
[As op]
-34.4 -36.8 79 -39 -39 опасность
обморожения
1030.1 988.6
21 12.12 штиль 0 10 км слабый снег 10/0
[As op]
-33.6 -35.9 80 -34 -34 опасность
обморожения
1029.5 988.0 -38.0 1 33
00 13.12 штиль 0 10 км в посл. час снег 10/0 2000 м
[As trans]
-35.7 -38.7 74 -36 -36 опасность
обморожения
1029.8 987.9
03 13.12 В 1 10 км 8/0
[Ci fib]
-35.4 -38.4 74 -40 -40 опасность
обморожения
1029.0 987.3
06 13.12 штиль 0 10 км слабый снег 10/0 2000 м
[As op]
-35.4 -37.7 79 -35 -35 опасность
обморожения
1028.1 986.5
09 13.12 В 1 10 км {снег} ясно -38.8 -41.8 73 -44 -44 опасность
обморожения
1028.3 986.0 -32.8 0.3
12 13.12 штиль 0 10 км 4/0 2000 м
[Ac trans]
-41.3 -43.8 77 -41 -41 опасность
обморожения
1028.1 985.5
15 13.12 штиль 0 10 км ясно -41.0 -43.8 74 -41 -41 опасность
обморожения
1026.9 984.3
18 13.12 В 1 10 км 10/0
[As op]
-35.7 -38.7 74 -40 -40 опасность
обморожения
1024.8 983.2
21 13.12 ЮВ 1 10 км 8/0
[Ac trans]
-34.4 -37.4 74 -39 -39 опасность
обморожения
1023.1 981.8 -41.4 32
00 14.12 В 1 10 км {снег} 10/0 2000 м
[Ac trans]
-37.6 -40.5 74 -43 -43 опасность
обморожения
1022.7 980.9
03 14.12 штиль 0 10 км {снег} 5/0
[As trans Ci]
-35.6 -37.7 81 -36 -36 опасность
обморожения
1020.8 979.3
06 14.12 В 1 10 км {снег} ясно -38.9 -41.2 79 -44 -44 опасность
обморожения
1020.0 978.0
09 14.12 В 1 10 км 3/0
[Cs]
-40.4 -42.7 78 -46 -46 опасность
обморожения
1019.5 977.4 -34.3 0.3
12 14.12 штиль 0 10 км ясно -40.2 -42.2 81 -40 -40 опасность
обморожения
1018.6 976.5
15 14.12 штиль 0 10 км ясно -39.9 -42.2 78 -40 -40 опасность
обморожения
1017.7 975.6
18 14.12 штиль 0 10 км ясно -40.0 -42.8 74 -40 -40 опасность
обморожения
1017.0 974.9
21 14.12 В 1 10 км ясно -40.1 -42.8 75 -45 -45 опасность
обморожения
1016.3 974.4 -41.9 31
00 15.12 штиль 0 50 км ясно -41.0 -43.8 74 -41 -41 опасность
обморожения
1017.0 974.8
03 15.12 В 1 50 км 3/0
[Ac trans]
-36.5 -39.4 74 -41 -41 опасность
обморожения
1015.8 974.4
06 15.12 штиль 0 50 км ясно -37.3 -40.1 75 -37 -37 опасность
обморожения
1015.5 974.1
09 15.12 штиль 0 10 км 10/0 2000 м
[As trans]
-35.6 -38.4 75 -36 -36 опасность
обморожения
1015.6 974.4 -35.0
12 15.12 СВ 1 10 км слабый снег 10/0 2000 м
[As op]
-31.5 -33.9 79 -36 -36 опасность
обморожения
1014.4 973.9
15 15.12 В 1 10 км слабый снег 10/0 2000 м
[As op]
-26.7 -29.9 74 -30 -30 1012.8 973.1
18 15.12 В 2 10 км слабый снег 10/0 2000 м
[As op]
-25.6 -28.5 77 -32 -32 опасность
обморожения
1011.8 972.4
21 15.12 В 1 10 км слабый снег 10/0
[As op]
-25.8 -28.3 79 -29 -29 1010.7 971.3 -36.1 0.7 35
00 16.12 ЮВ 1 10 км слабый снег 10/0 2000 м
[As op]
-27.4 -30.5 75 -31 -31 опасность
обморожения
1010.5 970.9
03 16.12 ЮВ 1 10 км слабый снег 10/0
[As op]
-24.0 -26.5 80 -27 -27 1009.6 970.5
06 16.12 штиль 0 10 км слабый снег 10/0
[As op]
-24.2 -27.4 75 -24 -24 1009.7 970.6
09 16.12 штиль 0 10 км слабый снег 10/0
[As op]
-28.5 -31.7 74 -29 -29 1010.7 970.8 -22.9 0.7
12 16.12 штиль 0 10 км слабый снег 10/0
[Cs]
-29.1 -30.9 84 -29 -29 1010.8 970.9
15 16.12 штиль 0 10 км слабый снег 10/0
[As op]
-27.5 -29.3 85 -28 -28 1010.0 970.4
18 16.12 штиль 0 10 км слабый снег 10/0
[As op]
-28.3 -30.0 85 -28 -28 1009.8 970.1
21 16.12 штиль 0 10 км {снег} 10/0
[As op]
-34.5 -37.4 75 -35 -35 опасность
обморожения
1010.8 969.9 -34.5 0.6 34
00 17.12 СЗ 1 10 км 10/0 2000 м
[Ac As]
-33.7 -35.9 80 -38 -38 опасность
обморожения
1010.3 969.6
03 17.12 С 1 10 км слабый снег 10/0
[As op]
-26.3 -28.7 80 -30 -30 1009.0 969.6
06 17.12 штиль 0 10 км слабый снег 10/0 2000 м
[As op]
-25.3 -27.8 80 -25 -25 1009.0 969.8
09 17.12 В 1 10 км слабый снег 10/0
[As op]
-24.8 -27.3 80 -28 -28 1009.6 970.4 -24.2 0.6
12 17.12 штиль 0 10 км слабый снег 10/0 2000 м
[As op]
-26.2 -29.4 74 -26 -26 1010.4 971.0
15 17.12 ЮВ 1 10 км слабый снег 10/0
[As op]
-26.8 -30.0 74 -31 -31 опасность
обморожения
1010.2 970.6
18 17.12 штиль 0 10 км слабый снег 10/0 2000 м
[As op]
-28.0 -31.2 74 -28 -28 1009.9 970.2
21 17.12 штиль 0 10 км слабый снег 10/0
[As op]
-29.0 -32.8 70 -29 -29 1009.2 969.3 -29.0 0.7 34
00 18.12 штиль 0 50 км {снег} 10/0
[As op]
-31.0 -34.8 69 -31 -31 опасность
обморожения
1009.0 968.9 -31.0
03 18.12 штиль 0 50 км 8/0 2000 м
[Ac trans]
-32.4 -36.2 69 -32 -32 опасность
обморожения
1007.9 967.6
06 18.12 штиль 0 50 км 8/0 2000 м
[Ac trans]
-33.3 -36.3 74 -33 -33 опасность
обморожения
1007.3 966.9
09 18.12 штиль 0 10 км 4/0
[Ac trans]
-36.9 -39.8 74 -37 -37 опасность
обморожения
1008.2 967.1 -28.9
12 18.12 В 1 10 км ясно -38.9 -41.8 74 -44 -44 опасность
обморожения
1008.9 967.4
15 18.12 З 1 10 км ясно -39.8 -42.8 73 -45 -45 опасность
обморожения
1009.2 967.5
18 18.12 штиль 0 10 км ясно -40.5 -42.7 79 -41 -41 опасность
обморожения
1009.5 967.6
21 18.12 ЮВ 1 10 км ясно -42.0 -44.4 77 -47 -47 опасность
обморожения
1010.7 968.6 -42.0 33
00 19.12 штиль 0 50 км ясно -42.8 -45.0 79 -43 -43 опасность
обморожения
1012.7 969.9 -43.1
03 19.12 ЮВ 1 50 км 3/0
[Ci fib]
-40.1 -42.8 75 -45 -45 опасность
обморожения
1012.4 970.6
06 19.12 штиль 0 50 км ясно -40.5 -43.3 74 -41 -41 опасность
обморожения
1013.3 971.3

 

Местоположение метеостанции Теплый Ключ (Якутия, Россия): широта 62.78 долгота 136.80 высота над уровнем моря 289 м.

В архиве по умолчанию представлена погода в Теплом Ключе за последнюю неделю. Архивные данные за месяц целиком и за предыдущие месяцы, начиная с января 2011 года, Вы можете получить, выбрав интересующий диапазон дат из раскрывающегося списка и нажав кнопку "Ввод!".


*Определитесь, кто Вы:
робот инопланетянин человек

Внимание! Время в таблицах - всемирное. Для получения местного времени необходимо прибавить поправку, которая в Теплом Ключе равна 9 ч.

Смотрите также архив погоды в соседних городах и на ближайших метеорологических станциях:

Погода в Охотском Перевозе (Якутия, Россия) (121 км)
Погода в Крест-Хальджае (Якутия, Россия) (122 км)
Погода в Томпо (Якутия, Россия) (139 км)
Погода в Восточной (Якутия, Россия) (150 км)
Погода в Ытык-Кюёле (Якутия, Россия) (175 км)
Погода в Чурапче (Якутия, Россия) (232 км)
Погода в Верхоянском Перевозе (Якутия, Россия) (249 км)
Погода в Агаякане (Якутия, Россия) (254 км)
Погода в Иэме (Якутия, Россия) (284 км)
Погода в Юртах (Якутия, Россия) (286 км)

Пояснения к столбцам:

Ветер - указаны скорость ветра в м/с - средняя за 10 мин, порывы в срок и между сроками (в фигурных скобках) и направление, откуда дует ветер: С - северный, СВ - северо-восточный, В - восточный, ЮВ - юго-восточный, Ю - южный, ЮЗ - юго-западный, З - западный, СЗ - северо-западный.
Видимость - горизонтальная дальность видимости в метрах или километрах. При видимости от 1 до 10 км при отсутствии осадков обычно наблюдается дымка, при ухудшении видимости до 1 км и менее - туман. В сухую погоду видимость может ухудшаться дымом, пылью или мглою.
Явления - указаны атмосферные явления, наблюдавшиеся в срок или в последний час перед сроком; фигурными скобками обозначены явления, наблюдавшиеся между сроками (за 1-3 часа до срока); квадратными скобками обозначены град или гололедные отложения с указанием их диаметра в мм.
Облачность - указаны через наклонную черту общая и нижняя облачность в баллах и высота нижней границы облаков в метрах; квадратными скобками обозначены формы облаков: Ci - перистые, Cs - перисто-слоистые, Cc - перисто-кучевые, Ac - высококучевые, As - высокослоистые, Sc - слоисто-кучевые, Ns - слоисто-дождевые, Cu - кучевые, Cb - кучево-дождевые. Подробнее классификацию облаков см. в Атласе облаков (PDF).
T - Температура воздуха - температура, измеренная на высоте 2 м над землей.
Td - Температура точки росы - температура, при понижении до которой содержащийся в воздухе водяной пар достигнет насыщения.
f - Относительная влажность воздуха - влажноcть воздуха, измеренная на высоте 2 м над землей.
Te - Эффективная температура - температура, которую ощущает одетый по сезону человек в тени. Характеристика душности погоды. При расчете учитывается влияние влажности воздуха и скорости ветра на теплоощущения человека.
Tes - Эффективная температура на солнце - температура, которую ощущает человек, с поправкой на солнечный нагрев. Характеристика знойности погоды. Зависит от высоты солнца над горизонтом, облачности и скорости ветра. Ночью, в пасмурную погоду, а также при ветре 12 м/с и более поправка равна нулю.
P - Атмосферное давление - приведенное к уровню моря атмосферное давление.
Po - Атмосферное давление - измеренное на уровне метеостанции атмосферное давление.
Tmin - Минимальная температура - минимум температуры воздуха на высоте 2 м над землей.
Tmax - Максимальная температура - максимум температуры воздуха на высоте 2 м над землей.
R - Количество осадков - Количество выпавших осадков за период времени, мм. При наведении курсора мыши на число - период времени, за который выпало указанное количество осадков.
R24 - Количество осадков - Количество выпавших осадков за 24 часа, мм.
S - Снежный покров - Высота снежного покрова, см. При наведении курсора мыши на число - состояние снежного покрова и степень покрытия местности в баллах.